Wind_Speed
49 48 50 49 35 29 13 7 8 7 7 10 10 17 17 16 14 15 16 17 19 24 39 32 27 36 42 44 41 47 49 54 48 52 60 59 55 54 59 61 63 67 67 68
45 46 47 47 35 31 16 9 9 8 8 9 16 19 19 20 19 18 15 19 24 17 28 35 30 23 38 43 42 43 43 43 51 61 56 55 55 57 60 63 65 68 69 73
43 41 42 44 34 28 22 11 11 10 10 12 12 12 14 19 23 26 20 17 25 29 25 23 27 38 33 36 37 43 47 50 52 52 56 53 55 61 58 60 63 66 65 62
41 36 42 39 37 26 20 10 13 15 15 16 18 18 17 20 25 25 23 22 20 25 33 32 28 27 30 34 37 34 35 39 44 43 47 49 50 53 55 55 53 49 47 48
39 34 38 37 40 25 22 19 12 14 15 18 21 22 17 20 25 28 28 25 27 26 29 29 30 32 33 33 33 34 35 37 38 40 43 46 47 50 49 49 48 44 42 47
35 34 35 37 37 26 23 22 19 15 15 17 17 23 27 23 23 26 29 29 27 24 24 24 26 28 28 29 33 36 37 39 41 42 44 45 42 43 44 44 44 46 48 51
34 34 29 37 34 36 25 21 23 20 17 19 19 21 25 28 29 23 24 23 23 25 28 26 25 26 29 31 34 37 39 40 42 44 42 37 36 40 44 44 46 51 55 55
35 33 29 38 35 33 30 25 22 24 21 22 22 29 26 23 22 23 24 25 24 25 26 26 26 27 29 31 35 37 38 43 41 38 37 32 34 36 43 46 52 57 57 58
34 30 31 34 33 33 38 26 26 22 21 23 26 27 33 27 26 27 28 28 30 30 29 30 29 28 30 34 36 38 37 36 34 30 31 32 34 37 42 48 53 58 61 64
34 29 32 35 34 31 34 27 27 24 21 27 32 33 32 31 31 30 32 34 32 32 33 34 34 31 34 32 34 34 33 31 29 28 29 32 35 36 42 48 55 62 64 66
32 30 33 35 37 35 31 23 26 26 27 26 29 32 34 33 33 35 34 36 36 34 35 37 35 35 33 31 32 29 27 25 25 26 29 32 37 38 47 56 59 59 63 66
34 30 35 34 37 32 32 25 23 26 30 26 27 35 37 33 35 36 34 35 37 38 38 37 36 33 32 33 28 25 24 26 28 30 32 34 41 46 51 55 59 64 69 72
37 32 32 36 37 35 32 30 24 24 25 28 33 40 37 27 32 38 38 40 41 39 37 37 36 32 32 31 27 28 27 30 33 35 39 43 47 50 55 60 64 68 69 73
39 32 34 38 37 34 30 30 25 27 24 30 38 43 39 34 35 38 39 41 42 39 35 34 32 33 33 30 31 33 32 35 39 43 45 48 52 56 61 65 67 69 72 77
35 35 36 36 40 33 32 32 23 26 27 23 31 35 37 32 32 30 32 34 36 33 32 32 32 31 34 34 36 36 38 41 43 46 50 54 58 62 65 67 70 74 77 80
38 36 37 39 40 35 33 29 33 29 29 26 26 26 28 27 28 26 29 34 36 35 35 31 32 34 36 38 39 41 43 47 50 52 55 58 62 66 68 71 74 78 81 84
39 36 39 41 41 36 36 30 29 27 30 26 24 30 28 29 29 31 32 33 34 36 37 37 37 38 42 43 44 46 49 51 53 56 60 64 67 69 72 75 78 82 84 86
42 41 43 42 40 38 37 32 28 30 29 27 27 30 31 28 29 31 30 32 35 37 41 43 43 43 42 45 48 50 52 53 57 60 65 68 70 73 75 79 82 84 86 89
45 44 43 43 40 40 39 34 30 26 27 33 32 29 28 28 29 30 30 31 35 39 42 43 44 45 47 49 51 52 55 58 61 65 68 70 72 75 80 83 84 86 88 91
47 47 46 41 45 40 41 36 32 28 29 28 31 29 26 26 24 26 27 30 32 36 40 42 43 46 49 52 54 57 59 62 65 67 69 72 76 81 83 84 87 89 91 94
43 45 47 44 41 41 42 40 36 33 34 29 33 34 34 33 32 33 34 33 32 33 37 41 45 48 51 54 57 60 63 65 66 69 73 77 79 81 85 87 89 91 95 99
46 46 46 44 43 41 43 43 38 34 35 32 35 39 41 42 42 40 39 39 39 40 41 43 45 49 53 56 58 61 64 67 70 74 77 79 82 84 87 90 93 97 100 101
46 48 51 47 42 45 47 45 41 40 40 37 35 37 43 45 45 45 43 43 45 47 48 50 51 54 57 59 63 65 68 71 74 76 79 82 84 87 91 95 98 101 103 104
51 52 53 49 47 49 49 48 46 41 44 44 40 38 39 44 48 47 47 49 50 51 52 53 55 58 60 63 65 68 71 74 77 79 82 85 89 93 97 100 101 103 104 106
53 54 52 49 52 54 52 50 51 51 48 47 41 42 40 41 45 49 49 49 50 52 55 57 60 62 65 68 70 73 75 78 81 85 88 92 95 98 101 102 102 103 108 110
53 54 54 53 57 55 55 54 55 51 52 47 40 42 41 40 42 45 48 49 51 53 56 60 63 65 68 72 74 77 80 83 87 90 92 94 95 97 100 103 107 110 111 114
Wind_Direction
329 336 339 342 327 323 305 305 297 323 227 219 213 202 217 224 208 216 219 237 231 224 218 220 237 240 231 239 234 240 243 239 251 249 251 254 262 269 271 278 281 283 285 286
327 335 340 343 329 320 311 290 288 290 278 254 238 237 226 229 210 210 217 229 236 249 219 227 243 245 243 245 249 254 258 259 255 257 259 265 268 273 274 274 278 284 285 287
323 334 338 345 331 321 316 294 292 290 287 275 251 246 233 230 221 218 222 233 231 230 233 236 246 247 245 242 249 250 254 255 259 255 263 269 268 264 271 279 283 284 285 283
319 328 336 338 339 314 310 286 271 275 264 255 248 228 229 231 227 229 231 245 244 238 237 247 258 257 252 253 255 255 257 258 259 264 267 273 274 279 284 285 283 281 282 284
314 319 331 338 343 311 301 287 258 261 263 251 252 244 237 238 237 233 234 248 253 258 263 263 263 265 269 274 274 274 275 276 275 277 279 279 280 286 284 282 280 281 288 292
307 313 328 338 343 323 297 289 277 252 250 250 251 247 240 241 236 242 244 252 257 258 265 264 268 266 272 276 278 278 277 277 277 279 278 280 281 280 280 280 283 286 288 292
301 306 326 333 339 339 299 290 282 267 245 242 243 242 243 245 248 243 244 259 260 264 269 275 277 274 273 275 275 277 276 278 280 280 279 275 280 279 281 282 286 289 288 294
294 300 314 330 333 329 327 281 276 273 255 234 235 244 248 243 238 246 250 256 258 267 272 272 280 273 267 271 275 279 279 279 277 275 272 272 285 278 280 287 290 289 292 298
287 293 308 323 331 333 329 294 271 273 256 236 236 248 254 248 251 257 255 255 266 268 273 272 274 271 275 279 276 275 275 272 272 269 270 276 279 281 280 287 289 290 295 298
279 290 305 316 327 332 327 304 273 263 261 237 234 238 245 248 251 257 259 263 265 271 274 277 279 278 280 276 273 267 265 266 271 272 278 281 287 285 283 284 284 288 295 294
271 290 301 310 322 328 325 302 271 257 253 254 245 242 245 248 250 255 259 264 268 270 271 275 276 274 273 269 263 260 259 263 270 278 279 278 279 278 280 278 285 290 290 289
271 287 295 305 320 328 325 308 276 259 254 263 251 248 247 244 250 254 257 261 262 264 266 274 271 269 268 263 256 256 262 269 274 271 271 270 276 273 278 284 284 288 292 294
271 280 290 302 312 325 319 316 278 257 249 249 248 246 257 249 253 259 260 261 263 263 272 272 267 265 264 259 254 258 261 266 269 270 273 273 276 277 282 285 288 289 293 299
268 278 287 297 309 317 316 317 290 274 259 246 246 251 259 260 257 257 259 261 264 266 267 264 263 262 259 252 253 256 259 264 268 270 272 277 280 282 284 287 291 298 300 301
266 277 284 290 305 308 318 312 304 276 267 259 255 254 256 256 258 259 262 265 266 264 261 261 260 259 254 252 255 262 266 269 271 271 275 279 283 288 292 297 301 299 299 301
265 270 279 289 302 309 311 312 322 294 276 271 267 260 261 264 260 254 258 263 267 268 267 261 265 261 253 255 259 264 268 272 275 279 283 288 290 293 298 299 297 298 300 302
261 270 279 288 299 308 305 312 317 306 278 277 273 263 264 260 264 264 259 260 261 265 266 269 269 262 254 255 259 263 268 273 278 282 286 289 292 295 296 296 296 298 300 301
264 270 275 286 295 299 310 309 321 314 274 263 257 256 261 262 262 262 261 263 263 265 269 271 271 269 263 260 262 267 272 278 282 285 287 289 293 294 294 295 297 299 300 302
261 266 272 284 292 295 302 310 317 318 275 256 256 260 266 268 269 270 269 270 266 265 268 270 270 269 268 269 272 276 279 281 282 283 287 291 292 293 294 295 298 300 302 304
259 268 276 279 288 290 298 306 313 310 277 285 265 255 259 263 265 271 275 276 275 273 271 269 266 265 266 269 272 274 277 280 284 288 290 291 291 293 295 297 299 302 304 305
258 266 274 277 281 286 292 307 309 309 304 291 273 263 263 265 267 268 271 277 284 285 278 272 269 268 269 271 273 276 280 284 286 289 290 292 295 296 297 299 302 304 304 305
257 261 266 271 275 280 294 300 306 302 309 297 282 270 267 268 271 273 276 277 278 279 278 277 277 276 277 278 281 284 286 289 290 291 294 296 296 297 300 302 303 304 305 306
249 255 264 273 274 278 286 296 299 303 303 299 289 278 271 270 271 274 277 279 280 280 280 281 283 284 285 286 287 290 291 291 294 296 295 296 299 301 301 302 303 304 305 305
249 256 263 267 274 280 286 293 297 296 298 299 290 286 278 272 272 273 276 278 279 281 283 285 287 288 288 289 290 291 293 294 295 297 299 300 300 301 301 301 302 303 305 305
250 257 262 268 271 277 286 291 292 296 295 294 285 285 286 282 278 275 276 279 283 286 288 288 290 290 291 293 294 295 297 299 300 300 300 300 300 300 300 302 304 305 305 305
249 255 263 267 272 278 283 288 290 292 291 288 282 285 287 286 289 286 283 283 285 287 289 290 291 294 296 297 299 300 301 301 300 299 299 300 301 302 303 304 305 305 304 304
Height
10640 10634 10626 10618 10612 10607 10604 10603 10602 10602 10603 10604 10605 10606 10609 10612 10615 10618 10622 10625 10628 10632 10636 10641 10646 10647 10649 10651 10653 10654 10657 10658 10659 10660 10662 10664 10663 10661 10659 10656 10653 10651 10647 10642
10637 10632 10625 10616 10609 10605 10602 10601 10602 10602 10601 10602 10604 10605 10607 10610 10614 10617 10620 10623 10625 10628 10632 10637 10640 10642 10644 10646 10648 10650 10652 10653 10653 10653 10652 10653 10653 10652 10649 10649 10645 10640 10636 10631
10633 10630 10622 10615 10608 10604 10600 10599 10600 10601 10600 10601 10603 10604 10605 10607 10611 10614 10618 10621 10623 10626 10629 10630 10632 10635 10636 10638 10640 10642 10645 10645 10645 10645 10644 10642 10643 10641 10643 10638 10634 10628 10623 10618
10630 10627 10621 10614 10607 10603 10599 10595 10597 10598 10600 10600 10600 10603 10603 10604 10607 10610 10614 10616 10618 10621 10624 10626 10627 10628 10629 10630 10632 10633 10633 10634 10635 10635 10634 10631 10629 10628 10626 10623 10621 10616 10612 10607
10624 10622 10618 10611 10604 10600 10597 10593 10593 10595 10596 10596 10597 10598 10600 10601 10604 10606 10609 10612 10613 10616 10618 10620 10621 10621 10621 10621 10622 10623 10623 10622 10623 10624 10622 10618 10616 10614 10612 10611 10608 10605 10601 10596
10619 10617 10614 10608 10601 10596 10594 10592 10590 10590 10591 10592 10593 10594 10595 10597 10600 10602 10604 10606 10608 10609 10611 10613 10614 10614 10614 10612 10613 10612 10614 10613 10613 10613 10611 10607 10605 10603 10601 10598 10596 10593 10589 10586
10613 10610 10609 10603 10599 10595 10590 10589 10587 10586 10586 10588 10590 10590 10590 10592 10594 10596 10598 10600 10601 10603 10604 10605 10606 10606 10606 10607 10605 10604 10604 10603 10603 10603 10602 10599 10597 10594 10591 10588 10586 10582 10578 10574
10606 10604 10602 10601 10594 10590 10587 10585 10583 10582 10582 10583 10584 10585 10585 10587 10589 10590 10591 10592 10593 10594 10595 10596 10597 10597 10596 10597 10596 10595 10595 10594 10594 10594 10593 10592 10590 10586 10581 10579 10575 10570 10565 10562
10599 10598 10595 10595 10591 10587 10581 10580 10578 10578 10578 10578 10579 10579 10578 10583 10585 10585 10586 10586 10586 10586 10587 10587 10588 10588 10587 10587 10586 10586 10586 10585 10585 10584 10584 10584 10581 10577 10573 10568 10563 10557 10552 10548
10591 10590 10590 10588 10585 10582 10578 10572 10572 10572 10573 10572 10572 10572 10572 10576 10578 10579 10579 10580 10580 10581 10580 10578 10577 10577 10577 10578 10577 10577 10576 10576 10576 10576 10576 10573 10570 10566 10562 10558 10552 10547 10544 10537
10582 10582 10582 10580 10578 10575 10571 10568 10565 10566 10566 10565 10567 10566 10564 10567 10570 10571 10573 10574 10573 10574 10573 10570 10570 10569 10569 10570 10570 10569 10568 10568 10568 10567 10566 10565 10561 10558 10553 10546 10543 10537 10530 10524
10573 10575 10575 10573 10571 10568 10565 10560 10559 10559 10559 10561 10561 10558 10555 10560 10562 10562 10565 10565 10566 10565 10565 10564 10563 10561 10562 10562 10563 10561 10560 10559 10557 10556 10556 10556 10552 10547 10541 10537 10530 10524 10517 10509
10565 10567 10567 10566 10565 10562 10558 10554 10551 10552 10552 10553 10553 10548 10548 10553 10554 10553 10554 10554 10554 10556 10557 10556 10555 10554 10554 10555 10554 10553 10552 10550 10547 10546 10544 10543 10540 10535 10529 10523 10517 10510 10503 10493
10557 10558 10558 10558 10558 10556 10553 10548 10545 10545 10544 10542 10543 10540 10542 10545 10545 10544 10545 10545 10545 10547 10548 10547 10546 10546 10546 10546 10544 10543 10542 10540 10539 10536 10533 10529 10525 10520 10515 10508 10500 10492 10484 10476
10549 10550 10549 10550 10551 10549 10546 10541 10539 10537 10536 10536 10532 10535 10534 10537 10537 10536 10536 10537 10537 10539 10540 10540 10538 10537 10536 10535 10534 10531 10531 10530 10527 10525 10521 10516 10511 10504 10498 10490 10481 10475 10468 10459
10540 10540 10541 10542 10544 10541 10537 10537 10533 10530 10530 10530 10529 10527 10526 10528 10529 10528 10528 10529 10529 10529 10529 10530 10529 10527 10526 10523 10522 10521 10520 10517 10514 10510 10506 10501 10496 10489 10480 10474 10467 10459 10450 10442
10530 10532 10533 10534 10535 10534 10529 10529 10527 10524 10523 10524 10523 10518 10519 10519 10520 10521 10521 10520 10520 10519 10519 10519 10519 10517 10515 10514 10513 10511 10508 10505 10502 10498 10493 10487 10480 10474 10467 10459 10451 10442 10433 10423
10522 10523 10524 10527 10527 10524 10521 10519 10519 10518 10516 10516 10513 10510 10510 10512 10512 10513 10514 10513 10512 10510 10508 10505 10504 10504 10505 10504 10502 10499 10496 10493 10489 10484 10478 10472 10466 10459 10451 10442 10434 10425 10415 10403
10511 10512 10516 10519 10519 10517 10513 10511 10511 10512 10507 10504 10505 10505 10505 10505 10505 10505 10504 10503 10501 10498 10497 10495 10494 10493 10492 10490 10488 10486 10483 10479 10475 10469 10463 10457 10451 10442 10433 10425 10415 10406 10395 10383
10500 10503 10507 10508 10509 10507 10503 10504 10503 10503 10497 10500 10499 10497 10497 10496 10496 10495 10494 10492 10490 10489 10488 10487 10485 10483 10481 10479 10477 10473 10469 10464 10458 10454 10448 10441 10433 10425 10416 10406 10396 10385 10373 10361
10490 10493 10496 10497 10500 10496 10494 10494 10494 10495 10492 10489 10488 10489 10488 10488 10487 10484 10483 10483 10482 10480 10479 10477 10475 10472 10470 10467 10464 10459 10454 10449 10444 10438 10431 10424 10416 10407 10396 10386 10375 10363 10352 10340
10478 10481 10483 10487 10490 10488 10485 10486 10487 10484 10483 10481 10478 10477 10477 10477 10476 10475 10474 10472 10470 10469 10467 10465 10463 10461 10458 10454 10450 10445 10440 10434 10427 10420 10413 10404 10394 10385 10374 10363 10352 10340 10329 10317
10467 10470 10471 10477 10480 10478 10476 10477 10477 10475 10472 10470 10469 10467 10466 10465 10464 10463 10462 10461 10459 10456 10453 10451 10448 10445 10442 10438 10433 10428 10423 10416 10409 10401 10393 10383 10374 10363 10353 10341 10329 10317 10307 10295
10456 10459 10462 10467 10467 10466 10467 10466 10466 10463 10460 10458 10457 10455 10454 10453 10452 10451 10450 10448 10446 10444 10440 10437 10434 10429 10425 10421 10416 10410 10404 10397 10390 10382 10372 10363 10354 10343 10331 10320 10308 10295 10282 10268
10446 10448 10453 10457 10454 10453 10456 10456 10453 10451 10450 10447 10444 10443 10441 10439 10438 10437 10435 10433 10430 10427 10425 10421 10417 10413 10408 10403 10398 10392 10385 10377 10369 10360 10351 10341 10331 10320 10307 10295 10282 10269 10254 10241
10438 10438 10439 10442 10439 10443 10442 10442 10440 10439 10437 10434 10432 10430 10428 10426 10425 10423 10420 10417 10414 10412 10408 10403 10399 10395 10390 10383 10377 10371 10363 10355 10346 10338 10329 10318 10308 10296 10284 10270 10254 10239 10226 10211